Weather in Ust'ye

Russia / Nenets Autonomous Okrug     67°34′03″N   52°35′29″E
temp.,
°C
wind,
m/s
gust,
m/s
humid.,
%
clouds,
%
prec.,
mm/h
press.,
hPa
HPBL,
m
18 september, sat
sat1800:00+4n71279100 0.1 1021743
03:00+4n71282100 0.3 1021740
06:00+3n7137992 0.1 1021701
09:00+5nne9127296 0.2 10221332
12:00+5n81272100 0.1 10221519
15:00+4n81271100 0.1 10231436
18:00+4n81267100 0.0 10231138
21:00+3n81273100 0.1 1024914
19 september, sun
sun1900:00+3n71273100 0.0 1024926
03:00+3n81374100 0.0 1024837
06:00+3n81270100 0.0 10241157
09:00+4n71172100 0.0 10261308
12:00+4n71171100 0.0 10261333
15:00+5nne81065100 0.0 10271285
18:00+4n61070100 0.0 1028670
21:00+3n5975100 0.0 1029494
20 september, mon
mon2000:00+4n5766100 0.0 1030349
03:00+4nnw3669100 0.0 1031204
06:00+4nnw4669100 0.0 1032280
09:00+5nw3672100 0.0 1032510
12:00+8nw5660100 0.0 10321129
15:00+7nw5767100 0.0 1032880
18:00+4wnw51079100 0.0 1031303
21:00+4w51284100 0.0 1030309
21 september, tue
tue2100:00+4wnw61392100 0.0 1029318
03:00+3wnw6139260 0.0 1028312
06:00+4wnw4118997 0.0 1028366
09:00+6wnw5108199 0.0 1027551
12:00+9nw686595 0.0 1027784
15:00+9nw576682 0.0 1026603
18:00+6nw3680100 0.0 1026212
21:00+6nw3586100 0.0 1026135
22 september, wed
wed2200:00+5nw3488100 0.0 1026107
03:00+6wnw2486100 0.0 102696
06:00+6wnw2384100 0.0 102687
09:00+6wnw2380100 0.0 1026182
12:00+8wnw2370100 0.0 1026378
15:00+8w236596 0.0 1026420
18:00+6ssw227149 0.0 102615
21:00+4sw33795 0.0 102521